OBJECT F

Satellite information

Favourite Embed

Satellite Type and Status

UNKNOWNIN ORBIT

Key statistics

Satellite OBJECT F at a glance.

Uptime

448

Days in orbit

Revolutions

≈ 15.6

Per day

Orbit

SSO

Sun Synchronous Orbit

Inclination

97.4

Latest

Satellite identification and parameters

Extended collection of information and parameters for OBJECT F.

Object identification

Identified? True

Debris? False

Object name: OBJECT F

International designator: 2024-173F

Object number (NORAD): 61232

Object ID (CCSDS): 61232

Country: PEOPLES REPUBLIC OF CHINA (PRC)

Current information (Y/N): Y

RCS size: MEDIUM

Orbital parameters

Period: 92.536 minutes

Inclination: 97.3647 deg

SMA: 6776.95 km

Apoapsis: 403.87 km

Periapsis: 393.761 km

RAAN: 72.1958 deg

Eccentricy: 0.00074587

Argument of periapsis: 105.4323 deg

Mean anomaly: 254.7756 deg

Mean motion: 15.56149424 rev/day

Mean motion (dot): 0.00026234 rev/day2

B* drag term: 0.00037552865 1/REarth

Two-line elements (TLE)

Creation date: Dec. 14, 2025, 6:24 p.m.

Reference frame: TEME

Reference center: EARTH

Epoch: Dec. 14, 2025, 7:52 a.m. UTC

TLE line 0: 0 OBJECT F

TLE line 1: 1 61232U 24173F 25348.32804508 .00026234 00000-0 37553-3 0 9996

TLE line 2: 2 61232 97.3647 72.1958 0007459 105.4323 254.7756 15.56149424 68693

Live tracking on map

Real-time ground track for satellite OBJECT F.

In-orbit conjunctions

There are no conjunctions computed for OBJECT F, at the moment. Check back to stay up to date, as we update our databases every day.

Go to all conjunctions

Associated space launch

Carried 8 satellites to a 500 km Sun-synchronous orbit: * Tianyi-41 * Luojia 4-01 * Fudan-1 * Tianyan-15 * Jitianxing A-01 * Xingshidai-15/21/22

OBJECT F was lifted into orbit during the mission ‘Smart Dragon 3 | 8 satellites’, on board a Smart Dragon 3 space rocket.

The launch took place on Sept. 24, 2024, 2:31 a.m. from Haiyang Spaceport.

For more information about the launch, click the button.

Launch to space Smart Dragon 3 | 8 satellites
Smart Dragon 3 | 8 satellites

Agency: N/A

Status: Launch Successful

Launch date: Sept. 24, 2024, 2:31 a.m. UTC

Rocket: Smart Dragon 3

Launch pad: Haiyang Spaceport

Location: Haiyang Oriental Spaceport

...

Latest news about this satellite

News about space launch
Launch Roundup: NASA Crew-9 flies half-empty, Starlink and Chinese launches continue

NASA and SpaceX’s launch of the Crew-9 mission was center stage this week. The launch of two new International Space Station crew members took place on Saturday from the recently crew-certified Space Launch Complex 40 (SLC-40) at the Cape Canaveral Space ...

News about space launch
Jielong-3 sea launch sends 8 satellites into orbit

HELSINKI — China launched its fourth Jielong-3 solid rocket from a sea platform late Monday, putting eight remote sensing satellites into sun-synchronous orbit. The fourth Jielong-3 (Smart Dragon-3) lifted off […]


Newsletter sign-up

Weekly statistics, charts and insights to help you stay on top of the space industry.